IW0GZ Monterotondo IT current weather conditions

sailwx.info

Wind from 047 at 3 knots gusting 4

Air temperature 3.3° C
Dewpoint 2.6° C

Last reported at 2020-Jan-27 09:00 UTC.
Time now 2020-Jan-27 09:23 UTC

Location: N 42°04' E 012°37'.
View on Google Maps.

See reports from other nearby stations

  
Tides and Currents Weather Stations Pressure Air Temp Water Temp Dewpoint Dewpoint Depression Visibility Wind Speed Wind Dir Waves Ship Positions
date/time (UTC)wind fromknots sea level pressurealtimeterstation pressurevisibilityair tempwater tempwave heightnotes
2020-Jan-27 09:00 047 3 gusting 4 3.3
2020-Jan-27 08:50 032 3 gusting 6 3.3
2020-Jan-27 08:40 037 3 gusting 5 3.3
2020-Jan-27 08:30 051 4 gusting 5 3.3
2020-Jan-27 08:20 043 3 gusting 6 2.8
2020-Jan-27 08:10 042 1 gusting 4 3.3
2020-Jan-27 08:00 045 0 gusting 0 3.9
2020-Jan-27 07:50 031 0 gusting 1 3.3
2020-Jan-27 07:40 044 0 gusting 1 2.2
2020-Jan-27 07:30 013 2.2
2020-Jan-27 07:20 022 0 gusting 1 2.2
2020-Jan-27 07:10 015 0 gusting 2 1.7
2020-Jan-27 07:00 311 1 gusting 2 1.7
2020-Jan-27 06:50 244 0 gusting 3 1.7
2020-Jan-27 06:40 315 1 gusting 2 2.2
2020-Jan-27 06:30 001 0 gusting 2 1.7
2020-Jan-27 06:20 051 2 gusting 2 1.7
2020-Jan-27 06:10 040 3 gusting 5 1.1
2020-Jan-27 06:00 037 3 gusting 5 1.1
2020-Jan-27 05:50 040 2 gusting 4 1.1
2020-Jan-27 05:40 032 2 gusting 3 1.7
2020-Jan-27 05:30 027 2 gusting 3 2.2
2020-Jan-27 05:20 015 2 gusting 3 3.3
2020-Jan-27 05:10 022 1 gusting 3 3.9
2020-Jan-27 05:00 035 1 gusting 2 3.9
2020-Jan-27 04:50 021 1 gusting 2 3.9
2020-Jan-27 04:40 028 2 gusting 3 3.9
2020-Jan-27 04:30 036 2 gusting 3 3.9
2020-Jan-27 04:20 027 2 gusting 3 3.9
2020-Jan-27 04:10 010 1 gusting 3 3.9
2020-Jan-27 04:00 359 1 gusting 4 4.4
2020-Jan-27 03:50 336 1 gusting 3 4.4
2020-Jan-27 03:40 342 1 gusting 4 4.4
2020-Jan-27 03:30 343 1 gusting 3 4.4
2020-Jan-27 03:20 343 2 gusting 3 5.0
2020-Jan-27 03:10 004 2 gusting 4 5.0
2020-Jan-27 03:00 013 1 gusting 3 4.4
2020-Jan-27 02:50 006 1 gusting 3 5.0
2020-Jan-27 02:40 354 1 gusting 3 5.6
2020-Jan-27 02:30 356 1 gusting 3 5.6
2020-Jan-27 02:20 004 1 gusting 2 5.6
2020-Jan-27 02:10 359 1 gusting 3 6.1
2020-Jan-27 02:00 031 0 gusting 2 5.6
2020-Jan-27 01:50 007 0 gusting 2 5.6
2020-Jan-27 01:40 284 5.6
2020-Jan-27 01:30 356 5.6
2020-Jan-27 01:20 063 5.0
2020-Jan-27 01:10 043 0 gusting 1 5.0
2020-Jan-27 01:00 041 0 gusting 2 5.6
2020-Jan-27 00:50 348 0 gusting 1 5.6
2020-Jan-27 00:40 015 1 gusting 3 6.1
2020-Jan-27 00:30 023 1 gusting 3 6.1
2020-Jan-27 00:20 021 1 gusting 3 6.1
2020-Jan-27 00:10 034 2 gusting 3 6.1
2020-Jan-27 00:00 027 2 gusting 4 6.7
2020-Jan-26 23:50 026 1 gusting 5 6.7
2020-Jan-26 23:40 030 2 gusting 3 6.7
2020-Jan-26 23:30 027 2 gusting 3 6.7
2020-Jan-26 23:20 038 2 gusting 4 7.2
2020-Jan-26 23:10 045 2 gusting 3 6.7
2020-Jan-26 23:00 036 1 gusting 4 6.7
2020-Jan-26 22:50 035 1 gusting 3 6.7
2020-Jan-26 22:40 029 2 gusting 3 7.2
2020-Jan-26 22:30 032 1 gusting 5 7.2
2020-Jan-26 22:20 030 1 gusting 3 7.2
2020-Jan-26 22:10 042 0 gusting 3 7.2
2020-Jan-26 22:00 040 1 gusting 2 7.8
2020-Jan-26 21:50 026 1 gusting 4 7.8
2020-Jan-26 21:40 015 1 gusting 2 7.8
2020-Jan-26 21:30 317 2 gusting 4 7.8
2020-Jan-26 21:20 329 2 gusting 5 8.3
2020-Jan-26 21:10 326 3 gusting 5 8.9
2020-Jan-26 21:00 342 2 gusting 5 8.9
2020-Jan-26 20:50 017 0 gusting 3 8.9
2020-Jan-26 20:40 042 0 gusting 1 9.4
2020-Jan-26 20:30 045 1 gusting 1 8.3
2020-Jan-26 20:20 039 1 gusting 2 8.3
2020-Jan-26 20:10 022 1 gusting 3 9.4
2020-Jan-26 20:00 325 2 gusting 3 10.0
2020-Jan-26 19:50 313 0 gusting 2 9.4
2020-Jan-26 19:20 324 0 gusting 1 10.6
2020-Jan-26 19:10 316 0 gusting 1 10.6
2020-Jan-26 19:00 299 0 gusting 1 10.6
2020-Jan-26 18:50 274 0 gusting 1 10.6
2020-Jan-26 18:40 266 10.6
2020-Jan-26 18:30 312 10.6
2020-Jan-26 18:20 312 0 gusting 1 11.1
2020-Jan-26 18:10 315 1 gusting 1 11.1
2020-Jan-26 18:00 331 11.1
2020-Jan-26 17:50 11.1
2020-Jan-26 17:40 043 11.1
2020-Jan-26 17:30 042 11.1
2020-Jan-26 17:20 299 0 gusting 1 11.7
2020-Jan-26 17:10 319 0 gusting 1 11.7
2020-Jan-26 17:00 340 0 gusting 2 12.2
2020-Jan-26 16:50 334 0 gusting 1 12.2
2020-Jan-26 16:40 334 0 gusting 0 12.2
2020-Jan-26 16:30 341 12.2
2020-Jan-26 16:20 354 0 gusting 0 12.2
2020-Jan-26 16:10 348 0 gusting 1 12.2
2020-Jan-26 16:00 352 0 gusting 1 12.2
2020-Jan-26 15:50 007 0 gusting 1 12.2
2020-Jan-26 15:40 353 1 gusting 1 12.8
2020-Jan-26 15:30 355 1 gusting 2 12.8
2020-Jan-26 15:20 358 0 gusting 2 12.8
2020-Jan-26 15:10 356 1 gusting 2 12.8
2020-Jan-26 15:00 354 2 gusting 3 12.8
2020-Jan-26 14:50 353 2 gusting 4 12.8
2020-Jan-26 14:40 018 2 gusting 4 12.8
2020-Jan-26 14:30 007 0 gusting 4 12.8
2020-Jan-26 14:20 326 1 gusting 4 13.3
2020-Jan-26 14:10 009 1 gusting 3 13.3
2020-Jan-26 14:00 021 1 gusting 5 13.3
2020-Jan-26 13:50 033 0 gusting 3 13.3
2020-Jan-26 13:40 333 1 gusting 3 13.3
2020-Jan-26 13:30 353 1 gusting 3 13.3
2020-Jan-26 13:20 031 1 gusting 3 13.3
2020-Jan-26 13:10 054 0 gusting 2 13.3
2020-Jan-26 13:00 012 1 gusting 3 13.3
2020-Jan-26 12:50 042 2 gusting 4 13.3
2020-Jan-26 12:40 051 0 gusting 5 13.3
2020-Jan-26 12:30 026 1 gusting 3 13.3
2020-Jan-26 12:20 026 2 gusting 5 12.8
2020-Jan-26 12:10 021 0 gusting 5 12.8
2020-Jan-26 12:00 309 0 gusting 1 12.2
2020-Jan-26 11:50 319 1 gusting 2 11.7
2020-Jan-26 11:40 306 1 gusting 5 11.7
2020-Jan-26 11:30 313 1 gusting 4 11.7
2020-Jan-26 11:20 314 0 gusting 4 11.1
2020-Jan-26 11:10 332 0 gusting 2 11.1
2020-Jan-26 11:00 015 0 gusting 2 10.6
2020-Jan-26 10:50 059 1 gusting 2 10.6
2020-Jan-26 10:40 060 1 gusting 2 10.0
2020-Jan-26 10:30 054 1 gusting 3 10.0
2020-Jan-26 10:20 037 1 gusting 3 9.4
2020-Jan-26 10:10 034 0 gusting 3 9.4
2020-Jan-26 10:00 055 0 gusting 1 8.9
2020-Jan-26 09:50 062 0 gusting 1 7.8
2020-Jan-26 09:40 035 1 gusting 2 7.2
2020-Jan-26 09:30 045 1 gusting 3 6.7
2020-Jan-26 09:20 036 1 gusting 4 6.1
2020-Jan-26 09:10 020 1 gusting 4 6.1
2020-Jan-26 09:00 359 0 gusting 4 5.6
2020-Jan-26 08:50 041 0 gusting 1 5.6
2020-Jan-26 08:40 002 1 gusting 3 5.6
2020-Jan-26 08:30 008 0 gusting 2 5.6
2020-Jan-26 08:20 323 5.6
2020-Jan-26 08:10 023 0 gusting 0 5.6
2020-Jan-26 08:00 028 0 gusting 1 4.4
2020-Jan-26 07:50 044 2 gusting 2 4.4
2020-Jan-26 07:40 042 2 gusting 3 4.4
2020-Jan-26 07:30 029 2 gusting 4 4.4
2020-Jan-26 07:20 027 2 gusting 3 4.4
2020-Jan-26 07:10 026 2 gusting 4 4.4
2020-Jan-26 07:00 018 3 gusting 5 5.0
2020-Jan-26 06:40 008 2 gusting 5 5.0
2020-Jan-26 06:30 033 2 gusting 3 4.4
2020-Jan-26 06:10 018 2 gusting 3 4.4
2020-Jan-26 06:00 013 2 gusting 5 5.0
2020-Jan-26 05:50 015 2 gusting 4 5.0
2020-Jan-26 05:30 013 2 gusting 4 5.6
2020-Jan-26 05:20 010 2 gusting 4 5.6
2020-Jan-26 05:10 008 2 gusting 4 6.1
2020-Jan-26 05:00 008 3 gusting 4 6.1
2020-Jan-26 04:50 359 2 gusting 4 6.1
2020-Jan-26 04:40 003 1 gusting 4 5.6
2020-Jan-26 04:30 008 1 gusting 3 5.6
2020-Jan-26 04:20 002 1 gusting 4 6.1
2020-Jan-26 04:10 001 1 gusting 4 6.1
2020-Jan-26 04:00 354 1 gusting 3 6.7
2020-Jan-26 03:50 346 1 gusting 4 6.7
2020-Jan-26 03:40 349 1 gusting 4 6.7
2020-Jan-26 03:30 004 1 gusting 4 6.7
2020-Jan-26 03:20 006 1 gusting 3 6.7
2020-Jan-26 03:10 006 2 gusting 3 6.1
2020-Jan-26 03:00 356 1 gusting 5 6.1
2020-Jan-26 02:50 010 0 gusting 1 6.1
2020-Jan-26 02:40 018 0 gusting 2 6.1
2020-Jan-26 02:30 015 1 gusting 2 6.7
2020-Jan-26 02:20 351 0 gusting 3 6.7
2020-Jan-26 02:10 353 0 gusting 1 6.7
2020-Jan-26 02:00 340 0 gusting 1 7.2
2020-Jan-26 01:50 349 0 gusting 1 7.2
2020-Jan-26 01:40 323 0 gusting 2 7.8
2020-Jan-26 01:30 339 0 gusting 2 7.8
2020-Jan-26 01:20 017 0 gusting 2 7.8
2020-Jan-26 01:10 359 0 gusting 2 7.8
2020-Jan-26 01:00 034 0 gusting 1 7.8
2020-Jan-26 00:50 039 0 gusting 1 7.8
2020-Jan-26 00:40 027 0 gusting 1 8.3
2020-Jan-26 00:30 005 0 gusting 1 8.3
2020-Jan-26 00:20 023 8.3
2020-Jan-26 00:10 031 8.3
2020-Jan-25 23:59 032 8.3
2020-Jan-25 23:49 031 8.3
2020-Jan-25 23:39 033 0 gusting 0 8.3
2020-Jan-25 23:29 041 0 gusting 0 8.3
2020-Jan-25 23:19 040 0 gusting 1 8.3
2020-Jan-25 23:09 039 1 gusting 2 8.3
2020-Jan-25 22:59 038 1 gusting 2 8.3
2020-Jan-25 22:49 038 1 gusting 1 8.3
2020-Jan-25 22:39 029 1 gusting 2 8.3
2020-Jan-25 22:29 037 1 gusting 2 8.3
2020-Jan-25 22:19 030 1 gusting 3 8.9
2020-Jan-25 22:09 029 0 gusting 2 8.9
2020-Jan-25 21:59 054 0 gusting 1 9.4
2020-Jan-25 21:49 054 0 gusting 1 9.4
2020-Jan-25 21:39 057 0 gusting 1 9.4
2020-Jan-25 21:29 039 0 gusting 1 9.4
2020-Jan-25 21:19 028 0 gusting 1 9.4
2020-Jan-25 21:09 020 0 gusting 1 9.4
2020-Jan-25 20:59 032 9.4
2020-Jan-25 20:49 061 0 gusting 0 9.4
2020-Jan-25 20:39 062 1 gusting 2 10.0
2020-Jan-25 20:29 075 0 gusting 2 10.0
2020-Jan-25 20:19 083 0 gusting 2 10.0
2020-Jan-25 20:09 114 10.0
2020-Jan-25 19:59 062 10.0
2020-Jan-25 19:49 004 0 gusting 0 10.0
2020-Jan-25 19:39 017 0 gusting 2 10.0
2020-Jan-25 19:29 067 0 gusting 1 10.6
2020-Jan-25 19:19 007 0 gusting 1 10.6
2020-Jan-25 19:09 081 1 gusting 0 10.6
2020-Jan-25 18:59 115 3 gusting 5 11.1
2020-Jan-25 18:49 128 2 gusting 6 11.1
2020-Jan-25 18:39 124 2 gusting 5 11.1
2020-Jan-25 18:29 118 3 gusting 6 11.1
2020-Jan-25 18:19 124 4 gusting 7 11.1
2020-Jan-25 18:09 127 4 gusting 8 11.7
2020-Jan-25 17:59 126 4 gusting 8 11.7
2020-Jan-25 17:49 125 4 gusting 9 11.7
2020-Jan-25 17:39 117 4 gusting 9 11.7
2020-Jan-25 17:29 116 5 gusting 8 11.7
2020-Jan-25 17:19 117 5 gusting 10 11.7
2020-Jan-25 17:09 117 5 gusting 8 12.2
2020-Jan-25 16:59 116 5 gusting 9 12.2
2020-Jan-25 16:49 116 4 gusting 8 12.2
2020-Jan-25 16:39 116 4 gusting 9 12.2
2020-Jan-25 16:29 118 4 gusting 10 12.2
2020-Jan-25 16:19 119 4 gusting 7 12.8
2020-Jan-25 16:09 119 5 gusting 9 12.8
2020-Jan-25 15:59 117 5 gusting 8 12.8
2020-Jan-25 15:49 115 4 gusting 10 13.3
2020-Jan-25 15:39 115 5 gusting 8 13.3
2020-Jan-25 15:29 112 5 gusting 10 13.3
2020-Jan-25 15:19 110 5 gusting 10 13.9
2020-Jan-25 15:09 114 5 gusting 10 13.9
2020-Jan-25 14:59 118 5 gusting 9 13.9
2020-Jan-25 14:49 118 4 gusting 7 13.9
2020-Jan-25 14:39 111 5 gusting 10 13.9
2020-Jan-25 14:29 112 5 gusting 8 14.4
2020-Jan-25 14:19 113 5 gusting 9 13.9
2020-Jan-25 14:09 114 6 gusting 10 13.9
2020-Jan-25 13:59 112 6 gusting 11 13.9
2020-Jan-25 13:49 105 6 gusting 12 13.9
2020-Jan-25 13:39 101 6 gusting 11 14.4
2020-Jan-25 13:29 112 4 gusting 11 14.4
2020-Jan-25 13:19 101 4 gusting 11 14.4
2020-Jan-25 13:09 090 5 gusting 8 14.4
2020-Jan-25 12:59 114 6 gusting 11 14.4
2020-Jan-25 12:49 112 6 gusting 13 14.4
2020-Jan-25 12:39 096 6 gusting 11 14.4
2020-Jan-25 12:29 111 6 gusting 12 13.9
2020-Jan-25 12:19 102 6 gusting 9 13.9
2020-Jan-25 12:09 110 6 gusting 13 13.9
2020-Jan-25 11:59 115 6 gusting 12 13.9
2020-Jan-25 11:49 109 6 gusting 11 13.9
2020-Jan-25 11:39 111 6 gusting 11 13.9
2020-Jan-25 11:29 108 6 gusting 11 13.9
2020-Jan-25 11:19 107 4 gusting 9 13.3
2020-Jan-25 11:09 117 3 gusting 8 13.3
2020-Jan-25 10:59 106 5 gusting 9 13.3
2020-Jan-25 10:49 109 3 gusting 9 12.8
2020-Jan-25 10:39 091 3 gusting 9 12.8
2020-Jan-25 10:29 097 2 gusting 6 12.8
2020-Jan-25 10:19 097 12.2
2020-Jan-25 10:09 042 0 gusting 1 11.7
2020-Jan-25 09:59 065 1 gusting 3 11.7
2020-Jan-25 09:49 068 2 gusting 5 11.1
2020-Jan-25 09:39 068 3 gusting 5 11.1
2020-Jan-25 09:29 069 4 gusting 8 10.6
2020-Jan-25 09:19 080 3 gusting 8 10.6
2020-Jan-25 09:09 117 1 gusting 6 10.6